This is the latest recevied weather packets stored in our database for station/object SV4JYD-14. If no packets are shown the sender has not sent any weather packets the latest 10 day(s).
| Time | Temp. | Humidity | Pressure | Rain* | Wind** | Luminosity | Snow |
|---|---|---|---|---|---|---|---|
| 1777642610 | 14.44° C | 60% | 1018 hPa | 0 mm | - | - | - |
| 1777641710 | 14.44° C | 60% | 1018 hPa | 0 mm | - | - | - |
| 1777640810 | 13.89° C | 60% | 1018 hPa | 0 mm | - | - | - |
| 1777638109 | 14.44° C | 58% | 1019 hPa | 0 mm | - | - | - |
| 1777637208 | 14.44° C | 59% | 1019 hPa | 0 mm | - | - | - |
| 1777636308 | 15° C | 58% | 1019 hPa | 0 mm | - | - | - |
| 1777635408 | 15° C | 58% | 1019 hPa | 0 mm | - | - | - |
| 1777634508 | 14.44° C | 60% | 1019 hPa | 0 mm | - | - | - |
| 1777633607 | 14.44° C | 60% | 1019 hPa | 0 mm | - | - | - |
| 1777632707 | 13.89° C | 62% | 1018 hPa | 0 mm | - | - | - |
| 1777631807 | 14.44° C | 60% | 1018 hPa | 0 mm | - | - | - |
| 1777630907 | 14.44° C | 61% | 1018 hPa | 0 mm | - | - | - |
| 1777630006 | 14.44° C | 60% | 1018 hPa | 0 mm | - | - | - |
| 1777629106 | 14.44° C | 62% | 1018 hPa | 0 mm | - | - | - |
| 1777628206 | 13.89° C | 61% | 1018 hPa | 0 mm | - | - | - |
| 1777627305 | 13.89° C | 62% | 1018 hPa | 0 mm | - | - | - |
| 1777626405 | 13.33° C | 65% | 1018 hPa | 0 mm | - | - | - |
| 1777625505 | 12.78° C | 65% | 1018 hPa | 0 mm | - | - | - |
| 1777624605 | 12.78° C | 65% | 1018 hPa | 0 mm | - | - | - |
| 1777623704 | 12.78° C | 66% | 1018 hPa | 0 mm | - | - | - |
| 1777622804 | 12.22° C | 66% | 1018 hPa | 0 mm | - | - | - |
| 1777621904 | 12.22° C | 67% | 1018 hPa | 0 mm | - | - | - |
| 1777621004 | 12.22° C | 70% | 1018 hPa | 0 mm | - | - | - |
| 1777620103 | 11.67° C | 72% | 1018 hPa | 0 mm | - | - | - |
| 1777619203 | 11.67° C | 73% | 1018 hPa | 0 mm | - | - | - |
* Rain latest hour (hover to see other rain measurements)
** Current wind speed in m/s (hover to see current wind gust speed)